Showing default

IRIDE FM2, 66696

Orbit data source: Space-Track

IRIDE FM2, 66696 is an Italian payload satellite in SSO that was launched on Fri, 28 Nov 2025 UTC via an FALCON 9 launch vehicle from the Air Force Western Test Range (AFWTR). Payload-class satellites include a variety of spacecraft equipped with specific instruments for various scientific and technological missions. These include communications satellites like Starlink; space stations such as the ISS; scientific satellites like the Hubble; Earth observation satellites from companies like Planet Labs, Umbra, and HawkEye 360; GPS; miniature CubeSats for education and research; and military/defense satellites.

Loading next visibility...
Identifier
66696, 2025-276AG
Orbit
SSO
Country
Flag of ITIT
Related business
Manufacturer
OHB-I
Mission
Operational Commercial Technology
Bus & Motor
EAGLET, Unknown motor
Mass
25 kg wet, 25 kg dry
Launch date (UTC)
2025-11-28 (9 months ago)
Launch vehicle
FALCON 9
Launch site
Air Force Western Test Range (AFWTR)
Object type
Payload
Rocket body
Debris
Shape & HBR
Box + 2 Pan, 1.0 m
Radar Cross Section
0.368 m², Medium (>0.1 m² and < 1m²)

Expand to show TLE details & history
Last TLE update: 13 hours ago

TLE from 13 hours ago
0 IRIDE FM2
1 66696U 25276AG  26238.17336564  .00004556  00000-0  20688-3 0  9998
2 66696  97.4144 310.6626 0005323 114.0714 246.1079 15.21274016 41068
Epoch: 2026-08-26T04:09Z
TLE epoch observation values (Epoch: 2026-08-26T04:09:38.791Z)
Latitude
-0.00003°
Longitude
-86.17919°
Altitude
506.574 km
Speed
7.61 km/s
True Right ascension
20h 42m 39s
True Declination
0° 00' 00"
Sunlit
Object was in full shadow at epoch
Visualization orbit readout
Latitude
Unknown
Longitude
Unknown
Altitude
Unknown
Speed
Unknown
Apparent Right ascension
Unknown
Apparent Declination
Unknown
Sunlit
N/A
Visualization observer readout
Local Sidereal Time
08:22:27
Azimuth
Unknown
Elevation
Unknown
Doppler factor
Unknown
Orbital elements
Apogee altitude
502.622 km
Perigee altitude
495.3 km
Semi-major axis
6,877.098 km
Eccentricity
0.00053
Inclination
97.4144°
RAAN
310.6626°
Arg. of periapsis
114.0714°
True anomaly
246.05214°
Mean anomaly
246.1079°
Eccentric anomaly
246.08002°
Mean motion
3.80571 °/min
Orbital period
94.59 mins
BSTAR
0.00020688
Loading maneuver chart data...
Computing Atmospheric mass density...
Loading historical data...
Loading historical data...
Loading historical data...
Loading historical data...
Loading historical data...
Loading historical data...
Loading historical data...

Documentation

Showing up to 5 results
|